Weather History for Gillette, WY

Change the Weather History Date:

Thursday, January 3, 2013

  Actual Average Record
Temperature  
Mean Temperature 19 °F 25 °F  
Max Temperature 30 °F 37 °F - ()
Min Temperature 7 °F 14 °F - ()
Degree Days  
Heating Degree Days 46 40  
Month to date heating degree days 140 120  
Since 1 July heating degree days 2980 3261  
Cooling Degree Days 0 0  
Month to date cooling degree days 0 0  
Year to date cooling degree days 0 0  
Moisture  
Dew Point 8 °F    
Average Humidity 65    
Maximum Humidity 91    
Minimum Humidity 39    
Precipitation  
Precipitation 0.00 in 0.01 in - ()
Month to date precipitation 0.04 0.03  
Year to date precipitation 0.04 0.03  
Sea Level Pressure  
Sea Level Pressure 30.33 in    
Wind  
Wind Speed 9 mph (SW)    
Max Wind Speed 17 mph    
Max Gust Speed 20 mph    
Visibility 10 miles    
Events      
T = Trace of Precipitation, MM = Missing Value Source: NWS Daily Summary

Daily Weather History Graph

Daily Weather History Graph

Search for Another Location

Airport:

Trip Planner

Search our weather history database for the weather conditions in past years. The results will help you decide how hot, cold, wet, or windy it might be!

Date:

Astronomy

Jan. 03, 2013 Rise Set
Actual Time 7:38 AM MST 4:35 PM MST
Civil Twilight 7:05 AM MST 5:08 PM MST
Nautical Twilight 6:28 AM MST 5:45 PM MST
Astronomical Twilight 5:53 AM MST 6:20 PM MST
Moon 11:30 PM MST (1/3) 10:35 AM MST (1/3)
Length of Visible Light 10h 03m
Length of Day
8h 57m
Waning Gibbous, 65% of the Moon is Illuminated
Jan 3
Waning Gibbous
Jan 4
Last Quarter
Jan 11
New
Jan 18
First Quarter
Jan 26
Full

Hourly Weather History & Observations

Time (MST) Temp. Windchill Dew Point Humidity Pressure Visibility Wind Dir Wind Speed Gust Speed Precip Events Conditions
12:53 AM 9.0 °F -6.6 °F 6.1 °F 88% 30.41 in 10.0 mi West 12.7 mph - N/A   Clear
1:53 AM 10.9 °F -4.7 °F 7.0 °F 84% 30.39 in 10.0 mi West 13.8 mph - N/A   Clear
2:53 AM 12.0 °F -2.7 °F 7.0 °F 80% 30.40 in 10.0 mi WSW 12.7 mph - N/A   Clear
3:53 AM 12.0 °F -2.0 °F 6.1 °F 77% 30.40 in 10.0 mi West 11.5 mph - N/A   Clear
4:53 AM 10.9 °F 4.7 °F 3.0 °F 70% 30.39 in 10.0 mi SSE 3.5 mph - N/A   Clear
5:53 AM 15.1 °F 6.4 °F 3.9 °F 61% 30.40 in 10.0 mi SSW 5.8 mph - N/A   Clear
6:53 AM 12.9 °F 5.2 °F 3.0 °F 65% 30.42 in 10.0 mi SW 4.6 mph - N/A   Clear
7:53 AM 16.0 °F 8.8 °F 1.9 °F 54% 30.40 in 10.0 mi WSW 4.6 mph - N/A   Clear
8:53 AM 19.0 °F 6.8 °F 5.0 °F 54% 30.40 in 10.0 mi SSW 11.5 mph - N/A   Clear
9:53 AM 21.9 °F 10.4 °F 7.0 °F 53% 30.38 in 10.0 mi SW 11.5 mph - N/A   Clear
10:53 AM 24.1 °F 12.0 °F 8.1 °F 51% 30.35 in 10.0 mi SW 13.8 mph - N/A   Clear
11:53 AM 27.0 °F 17.3 °F 10.0 °F 49% 30.32 in 10.0 mi SSW 10.4 mph - N/A   Clear
12:53 PM 28.9 °F 19.2 °F 10.9 °F 47% 30.28 in 10.0 mi SW 11.5 mph - N/A   Clear
1:53 PM 30.0 °F 20.5 °F 12.9 °F 49% 30.25 in 10.0 mi SW 11.5 mph - N/A   Clear
2:53 PM 28.9 °F 18.2 °F 14.0 °F 54% 30.26 in 10.0 mi SW 13.8 mph - N/A   Clear
3:53 PM 27.0 °F 20.5 °F 12.9 °F 56% 30.27 in 10.0 mi West 5.8 mph - N/A   Clear
4:53 PM 26.1 °F - 10.0 °F 51% 30.28 in 10.0 mi Calm Calm - N/A   Clear
5:53 PM 26.1 °F 14.5 °F 10.9 °F 53% 30.27 in 10.0 mi WSW 13.8 mph - N/A   Clear
6:53 PM 26.1 °F 15.0 °F 10.0 °F 51% 30.27 in 10.0 mi WSW 12.7 mph - N/A   Clear
7:53 PM 25.0 °F 13.6 °F 10.0 °F 53% 30.27 in 10.0 mi SW 12.7 mph - N/A   Clear
8:53 PM 28.9 °F 25.2 °F 7.0 °F 40% 30.25 in 10.0 mi SSE 3.5 mph - N/A   Clear
9:53 PM 21.9 °F - 3.9 °F 46% 30.26 in 10.0 mi Calm Calm - N/A   Clear
10:53 PM 21.9 °F 14.5 °F 5.0 °F 48% 30.27 in 10.0 mi South 5.8 mph - N/A   Clear
11:53 PM 25.0 °F - 7.0 °F 46% 30.23 in 10.0 mi Calm Calm - N/A   Clear